Regional Weather Roundup
Issued by NWS Sterling, VA

Home | Current Version | Previous Version | Graphics & Text | Print | Product List | Glossary On
Versions: 1 2 3 4 5 6 7 8 9 10 11 12 13 14 15 16 17 18 19 20 21 22 23 24 25 26 27
000
ASUS41 KLWX 231310
RWRLWX

REGIONAL WEATHER ROUNDUP
NATIONAL WEATHER SERVICE BALTIMORE MD/WASHINGTON DC
900 AM EDT WED APR 23 2014

Note: "FAIR" indicates few or no clouds below 12,000 feet
with no significant weather and/or obstructions to visibility.
 TC=TEMPERATURE CELSIUS

 * =Non NWS site. Station does not report precipitation (e.g. rain,
    snow, etc.), thunder, or fog.

DCZ001-MDZ009-015-VAZ040>042-051-053>054-231400-
WASHINGTON METRO

CITY           SKY/WX    TMP DP  RH WIND       PRES   REMARKS
WASHINGTON NAT MOSUNNY   53  33  46 NW22G29   29.81R
DULLES         MOSUNNY   49  30  48 W24G33    29.81R
ANDREWS AFB    MOSUNNY   52  33  48 NW26      29.79R
FT BELVOIR     MOSUNNY   53  31  42 NW22G37   29.81R
QUANTICO       MOSUNNY   53  33  46 N14       29.83R
COLLEGE PARK*  MOSUNNY   52  32  46 NW14G28   29.80R
LEESBURG*      CLOUDY    50  37  62 N17G24    29.83R
MANASSAS*      MOSUNNY   54  36  50 NW24G30   29.82R
GAITHERSBURG*  CLOUDY    46  30  53 NW14G21   29.83R

$$

MDZ006>007-011-014-231400-
BALTIMORE METRO

CITY           SKY/WX    TMP DP  RH WIND       PRES   REMARKS
BWI AIRPORT    PTSUNNY   50  31  48 NW22G36   29.78R
MD SCIENCE CTR   N/A     51  32  48 MISG      29.79R
MARTIN STATE   PTSUNNY   54  36  50 W20G29    29.79R
ANNAPOLIS      MOSUNNY   51  34  52 NW15G31   29.78R

$$

MDZ012-015-019>023-231400-
MARYLAND EASTERN SHORE

CITY           SKY/WX    TMP DP  RH WIND       PRES   REMARKS
OCEAN CITY     SUNNY     56  36  47 NW12G25   29.69S
SALISBURY      SUNNY     57  35  43 NW16G33   29.70S
BAY BRIDGE AP* MOSUNNY   52  34  50 NW22G29   29.77R
CAMBRIDGE*     SUNNY     54  32  43 NW21G30   29.75R
EASTON*        MOSUNNY   54  37  54 NW21G33   29.79R

$$

MDZ017>025-231400-
SOUTHERN MARYLAND

CITY           SKY/WX    TMP DP  RH WIND       PRES   REMARKS
PATUXENT RIVER MOSUNNY   54  35  48 NW20G31   29.75R
ST INIGOES     SUNNY     54  32  43 NW23G33   29.75R
LEONARDTOWN*   SUNNY     54  32  43 W14G24    29.78R

$$

MDZ003>005-231400-
NORTH CENTRAL MARYLAND

CITY           SKY/WX    TMP DP  RH WIND       PRES   REMARKS
FREDERICK*     PTSUNNY   48  37  66 MISG      29.85R
HAGERSTOWN APT CLOUDY    45  31  58 NW17G30   29.83R
WESTMINSTER*   CLOUDY    46  32  57 NW21G29   29.78R

$$

MDZ501>502-231400-
WESTERN MARYLAND

CITY           SKY/WX    TMP DP  RH WIND       PRES   REMARKS
OAKLAND*       CLOUDY    32  28  86 W12G22    29.85R WCI  23
CUMBERLAND*    CLOUDY    45  32  61 NW9G20    29.92R

$$

VAZ025>031-231400-
SHENANDOAH VALLEY

CITY           SKY/WX    TMP DP  RH WIND       PRES   REMARKS
WINCHESTER*    PTSUNNY   46  32  57 NW29G35   29.83F
STAUNTON*      SUNNY     50  29  43 W7        29.86R

$$

WVZ021-048>050-054>055-231400-
EASTERN WEST VIRGINIA PANHANDLE

CITY           SKY/WX    TMP DP  RH WIND       PRES   REMARKS
MARTINSBURG    CLOUDY    47  30  51 NW22G29   29.85R
PETERSBURG*    CLOUDY    52  35  52 NW10G24   29.91R

$$

VAZ036>039-050-231400-
CENTRAL FOOTHILLS

CITY           SKY/WX    TMP DP  RH WIND       PRES   REMARKS
CHARLOTTESVILL SUNNY     54  31  41 NW8       29.82R
CULPEPER*      PTSUNNY   55  28  35 N10       29.83R

$$

VAZ055>057-231400-
NORTH AND CENTRAL PIEDMONT

CITY           SKY/WX    TMP DP  RH WIND       PRES   REMARKS
FREDERICKSBRG* SUNNY     56  32  41 NW16G25   29.81S
STAFFORD*      SUNNY     54  34  46 NW24G31   29.85R

$$

NCZ024-NYZ072-PAZ021-071-VAZ022-071-231400-
OTHER REGIONAL OBSERVATIONS

CITY           SKY/WX    TMP DP  RH WIND       PRES   REMARKS
NEW YORK CITY  CLOUDY    50  33  52 NW9G24    29.61R
PHILADELPHIA   PTSUNNY   51  31  46 NW25G36   29.70R
PITTSBURGH     CLOUDY    40  32  73 NW16      29.95R
ROANOKE        MOSUNNY   51  29  42 W12       29.89R
RICHMOND       SUNNY     58  32  37 NW13G24   29.79R
RALEIGH        MOSUNNY   61  34  36 VRB5      29.83R

$$

ANZ530>537-231400-
MARINE OBSERVATIONS

STATION/POSITION TIME  TEMP    WIND        PRES
                       AIR SEA DIR/SP/G
                 (UTC) (F)     (DEG/KT/KT) (MB)
THOMAS PT LIGHT  1300   50 53  320/ 25/ 28 1008.2R
BALT KEY BRIDGE  1300   50     300/ 23/ 27 1008.4F
COVE POINT       1300   52     340/ 27/ 31 1007.3R
LEWISETTA        1300   54 57  330/ 23/ 32 1007.5R
SOLOMONS ISLAND  1300      55                N/A
PINEY POINT      1300          330/ 32/ 35   N/A

$$




USA.gov is the U.S. government's official web portal to all federal, state and local government web resources and services.